Thief River Falls, MN

10:23 AM CDT on October 19, 2017 (GMT -0500)
Thief River Falls Regional

Weather History for KTVF - August, 2014

Change the Weather History Date:

Sunday, August 17, 2014

  Actual Average Record
Temperature  
Mean Temperature 66 °F -  
Max Temperature 71 °F 73 °F 93 °F (2003)
Min Temperature 62 °F 54 °F 40 °F (1977)
Cooling Degree Days 2    
Growing Degree Days 16 (Base 50)    
Moisture  
Dew Point 60 °F    
Average Humidity 83    
Maximum Humidity 94    
Minimum Humidity 73    
Precipitation  
Precipitation 0.00 in - - ()
Sea Level Pressure  
Sea Level Pressure 29.93 in    
Wind  
Wind Speed 10 mph (ESE)    
Max Wind Speed 13 mph    
Max Gust Speed -    
Visibility 10 miles    
Events      
Averages and records for this station are not official NWS values.
T = Trace of Precipitation, MM = Missing Value Source: NWS Daily Summary

Daily Weather History Graph

Daily Weather History Graph

Search for Another Location

Airport or City:

Trip Planner

Search our weather history database for the weather conditions in past years. The results will help you decide how hot, cold, wet, or windy it might be!

Date:

Astronomy

Aug. 17, 2014 Rise Set
Actual Time 6:22 AM CDT 8:34 PM CDT
Civil Twilight 5:48 AM CDT 9:08 PM CDT
Nautical Twilight 5:05 AM CDT 9:50 PM CDT
Astronomical Twilight 4:17 AM CDT 10:37 PM CDT
Moon No Moon Rise 2:45 PM CDT (8/17)
Length of Visible Light 15h 20m
Length of Day
14h 12m
Waning Gibbous, 48% of the Moon is Illuminated
Aug 17
Waning Gibbous
Aug 25
New
Sep 2
First Quarter
Sep 8
Full
Sep 15
Last Quarter

Hourly Weather History & Observations

Time (CDT) Temp. Dew Point Humidity Pressure Visibility Wind Dir Wind Speed Gust Speed Precip Events Conditions
12:15 AM 64.4 °F 57.2 °F 77% 29.97 in 10.0 mi ENE 10.4 mph - N/A   Clear
12:35 AM 62.6 °F 57.2 °F 82% 29.97 in 10.0 mi ENE 11.5 mph - N/A   Clear
12:55 AM 62.6 °F 57.2 °F 82% 29.97 in 10.0 mi ENE 11.5 mph - N/A   Clear
1:15 AM 62.6 °F 57.2 °F 82% 29.97 in 10.0 mi ENE 10.4 mph - N/A   Clear
1:35 AM 62.6 °F 57.2 °F 82% 29.97 in 10.0 mi ENE 10.4 mph - N/A   Clear
1:55 AM 62.6 °F 57.2 °F 82% 29.97 in 10.0 mi ENE 10.4 mph - N/A   Partly Cloudy
2:15 AM 62.6 °F 57.2 °F 82% 29.96 in 10.0 mi ENE 11.5 mph - N/A   Partly Cloudy
2:35 AM 62.6 °F 57.2 °F 82% 29.96 in 10.0 mi ENE 10.4 mph - N/A   Partly Cloudy
2:55 AM 62.6 °F 57.2 °F 82% 29.96 in 10.0 mi ENE 9.2 mph - N/A   Clear
3:15 AM 62.6 °F 57.2 °F 82% 29.95 in 10.0 mi ENE 9.2 mph - N/A   Clear
3:35 AM 62.6 °F 57.2 °F 82% 29.95 in 10.0 mi ENE 9.2 mph - N/A   Clear
3:55 AM 62.6 °F 57.2 °F 82% 29.95 in 10.0 mi ENE 10.4 mph - N/A   Clear
4:15 AM 62.6 °F 57.2 °F 82% 29.94 in 10.0 mi ENE 11.5 mph - N/A   Clear
4:35 AM 62.6 °F 57.2 °F 82% 29.94 in 10.0 mi ENE 12.7 mph - N/A   Clear
4:55 AM 62.6 °F 57.2 °F 82% 29.95 in 10.0 mi East 9.2 mph - N/A   Scattered Clouds
5:15 AM 62.6 °F 59.0 °F 88% 29.95 in 10.0 mi East 10.4 mph - N/A   Mostly Cloudy
5:35 AM 62.6 °F 60.8 °F 94% 29.95 in 10.0 mi East 11.5 mph - N/A   Overcast
5:55 AM 62.6 °F 60.8 °F 94% 29.95 in 10.0 mi East 9.2 mph - N/A   Scattered Clouds
6:15 AM 62.6 °F 60.8 °F 94% 29.94 in 10.0 mi East 9.2 mph - N/A   Clear
6:35 AM 62.6 °F 60.8 °F 94% 29.95 in 10.0 mi East 9.2 mph - N/A   Scattered Clouds
6:55 AM 64.4 °F 60.8 °F 88% 29.96 in 10.0 mi East 9.2 mph - N/A   Overcast
7:15 AM 64.4 °F 60.8 °F 88% 29.97 in 10.0 mi East 10.4 mph - N/A   Mostly Cloudy
7:35 AM 64.4 °F 60.8 °F 88% 29.97 in 10.0 mi ESE 10.4 mph - N/A   Mostly Cloudy
7:55 AM 64.4 °F 60.8 °F 88% 29.97 in 10.0 mi ESE 10.4 mph - N/A   Overcast
8:15 AM 64.4 °F 60.8 °F 88% 29.97 in 10.0 mi ESE 9.2 mph - N/A   Overcast
8:35 AM 64.4 °F 60.8 °F 88% 29.97 in 10.0 mi ESE 9.2 mph - N/A   Overcast
8:55 AM 64.4 °F 60.8 °F 88% 29.97 in 10.0 mi SE 11.5 mph - N/A   Overcast
9:15 AM 64.4 °F 60.8 °F 88% 29.97 in 10.0 mi ESE 10.4 mph - N/A   Overcast
9:35 AM 64.4 °F 60.8 °F 88% 29.97 in 10.0 mi ESE 12.7 mph - N/A   Overcast
9:55 AM 64.4 °F 60.8 °F 88% 29.97 in 10.0 mi ESE 11.5 mph - N/A   Overcast
10:15 AM 64.4 °F 60.8 °F 88% 29.97 in 10.0 mi SE 11.5 mph - N/A   Overcast
10:35 AM 64.4 °F 60.8 °F 88% 29.97 in 10.0 mi ESE 11.5 mph - N/A   Overcast
10:55 AM 64.4 °F 60.8 °F 88% 29.96 in 10.0 mi SE 10.4 mph - N/A   Overcast
11:15 AM 64.4 °F 60.8 °F 88% 29.96 in 10.0 mi ESE 11.5 mph - N/A   Overcast
11:35 AM 66.2 °F 60.8 °F 83% 29.97 in 10.0 mi SE 10.4 mph - N/A   Overcast
11:55 AM 66.2 °F 60.8 °F 83% 29.98 in 10.0 mi SE 10.4 mph - N/A   Overcast
12:15 PM 66.2 °F 60.8 °F 83% 29.97 in 10.0 mi SE 10.4 mph - N/A   Overcast
12:35 PM 66.2 °F 60.8 °F 83% 29.96 in 10.0 mi SE 11.5 mph - N/A   Overcast
12:55 PM 66.2 °F 60.8 °F 83% 29.96 in 10.0 mi SE 10.4 mph - N/A   Overcast
1:15 PM 66.2 °F 60.8 °F 83% 29.96 in 10.0 mi SE 11.5 mph - N/A   Overcast
1:35 PM 68.0 °F 60.8 °F 78% 29.95 in 10.0 mi SE 12.7 mph - N/A   Overcast
1:55 PM 68.0 °F 60.8 °F 78% 29.95 in 10.0 mi SE 10.4 mph - N/A   Overcast
2:15 PM 69.8 °F 60.8 °F 73% 29.95 in 10.0 mi SE 10.4 mph - N/A   Overcast
2:35 PM 69.8 °F 62.6 °F 78% 29.94 in 10.0 mi ESE 9.2 mph - N/A   Overcast
2:55 PM 69.8 °F 62.6 °F 78% 29.94 in 10.0 mi ESE 9.2 mph - N/A   Overcast
3:15 PM 69.8 °F 62.6 °F 78% 29.93 in 10.0 mi SE 11.5 mph - N/A   Overcast
3:35 PM 69.8 °F 62.6 °F 78% 29.93 in 10.0 mi SE 9.2 mph - N/A   Overcast
3:55 PM 69.8 °F 62.6 °F 78% 29.92 in 10.0 mi ESE 11.5 mph - N/A   Overcast
4:15 PM 69.8 °F 62.6 °F 78% 29.92 in 10.0 mi SE 6.9 mph - N/A   Overcast
4:35 PM 71.6 °F 62.6 °F 73% 29.91 in 10.0 mi SE 8.1 mph - N/A   Overcast
5:15 PM 71.6 °F 62.6 °F 73% 29.90 in 10.0 mi SE 8.1 mph - N/A   Overcast
5:35 PM 71.6 °F 62.6 °F 73% 29.89 in 10.0 mi SE 11.5 mph - N/A   Overcast
5:55 PM 71.6 °F 62.6 °F 73% 29.89 in 10.0 mi SE 11.5 mph - N/A   Overcast
6:15 PM 69.8 °F 62.6 °F 78% 29.88 in 10.0 mi SSE 8.1 mph - N/A   Overcast
6:35 PM 69.8 °F 62.6 °F 78% 29.87 in 10.0 mi SE 10.4 mph - N/A   Overcast
6:55 PM 69.8 °F 62.6 °F 78% 29.87 in 10.0 mi SSE 8.1 mph - N/A   Overcast
7:15 PM 69.8 °F 62.6 °F 78% 29.87 in 10.0 mi SSE 8.1 mph - N/A   Overcast
7:35 PM 69.8 °F 62.6 °F 78% 29.86 in 10.0 mi SSE 10.4 mph - N/A   Overcast
7:55 PM 68.0 °F 62.6 °F 83% 29.85 in 10.0 mi SSE 9.2 mph - N/A   Overcast
8:15 PM 68.0 °F 62.6 °F 83% 29.86 in 10.0 mi SE 8.1 mph - N/A   Overcast
8:35 PM 66.2 °F 60.8 °F 83% 29.86 in 10.0 mi SE 10.4 mph - N/A   Overcast
8:55 PM 66.2 °F 60.8 °F 83% 29.86 in 10.0 mi SE 12.7 mph - N/A   Overcast
9:15 PM 66.2 °F 60.8 °F 83% 29.86 in 10.0 mi SE 9.2 mph - N/A   Overcast
9:35 PM 64.4 °F 60.8 °F 88% 29.86 in 10.0 mi SE 9.2 mph - N/A   Overcast
9:55 PM 64.4 °F 60.8 °F 88% 29.87 in 10.0 mi SE 8.1 mph - N/A   Overcast
10:15 PM 64.4 °F 60.8 °F 88% 29.88 in 10.0 mi SE 8.1 mph - N/A   Overcast
10:35 PM 64.4 °F 60.8 °F 88% 29.88 in 10.0 mi SSE 6.9 mph - N/A   Overcast
10:55 PM 64.4 °F 60.8 °F 88% 29.87 in 10.0 mi SSE 8.1 mph - N/A   Overcast
11:15 PM 64.4 °F 60.8 °F 88% 29.86 in 10.0 mi SSE 9.2 mph - N/A   Overcast
11:35 PM 64.4 °F 60.8 °F 88% 29.84 in 10.0 mi SE 10.4 mph - N/A   Overcast
11:55 PM 62.6 °F 60.8 °F 94% 29.86 in 10.0 mi SW 6.9 mph - N/A   Overcast